Weather History for KJMR - July, 2013

Change the Weather History Date:

Saturday, July 13, 2013

  Actual Average Record
Temperature  
Mean Temperature 70 °F -  
Max Temperature 75 °F 82 °F 108 °F (1936)
Min Temperature 64 °F 55 °F 36 °F (1987)
Cooling Degree Days 4    
Growing Degree Days 20 (Base 50)    
Moisture  
Dew Point 63 °F    
Average Humidity 80    
Maximum Humidity 94    
Minimum Humidity 53    
Precipitation  
Precipitation 1.36 in - - ()
Sea Level Pressure  
Sea Level Pressure 30.02 in    
Wind  
Wind Speed 6 mph (SSE)    
Max Wind Speed 15 mph    
Max Gust Speed 22 mph    
Visibility 10 miles    
Events Rain , Thunderstorm    
Averages and records for this station are not official NWS values.
T = Trace of Precipitation, MM = Missing Value Source: NWS Daily Summary

Daily Weather History Graph

Daily Weather History Graph

Search for Another Location

Airport or City:

Trip Planner

Search our weather history database for the weather conditions in past years. The results will help you decide how hot, cold, wet, or windy it might be!

Date:

Astronomy

Jul. 13, 2013 Rise Set
Actual Time 5:35 AM CDT 9:01 PM CDT
Civil Twilight 4:58 AM CDT 9:38 PM CDT
Nautical Twilight 4:10 AM CDT 10:26 PM CDT
Astronomical Twilight 3:07 AM CDT 11:28 PM CDT
Moon 11:12 AM CDT (7/13) 11:20 PM CDT (7/13)
Length of Visible Light 16h 39m
Length of Day
15h 25m
Waxing Crescent, 26% of the Moon is Illuminated
Jul 13
Waxing Crescent
Jul 15
First Quarter
Jul 22
Full
Jul 29
Last Quarter
Aug 6
New

Hourly Weather History & Observations

Time (CDT) Temp. Dew Point Humidity Pressure Visibility Wind Dir Wind Speed Gust Speed Precip Events Conditions
12:15 AM 73.4 °F 55.4 °F 53% 29.95 in 10.0 mi South 4.6 mph - N/A   Clear
12:35 AM 73.4 °F 55.4 °F 53% 29.96 in 10.0 mi South 5.8 mph - N/A Thunderstorm Scattered Clouds
12:54 AM 73.4 °F 55.4 °F 53% 29.95 in 10.0 mi South 4.6 mph - N/A Rain , Thunderstorm Light Thunderstorms and Rain
1:15 AM 73.4 °F 59.0 °F 61% 29.94 in 10.0 mi South 6.9 mph - N/A Rain Light Rain
1:35 AM 71.6 °F 59.0 °F 64% 29.92 in 10.0 mi SSE 8.1 mph - N/A Rain Light Rain
1:54 AM 69.8 °F 60.8 °F 73% 29.98 in 10.0 mi West 5.8 mph - 0.01 in Rain Rain
2:15 AM 69.8 °F 62.6 °F 78% 29.97 in 10.0 mi South 10.4 mph - N/A Thunderstorm Mostly Cloudy
2:34 AM 69.8 °F 62.6 °F 78% 29.95 in 10.0 mi SSW 15.0 mph 21.9 mph N/A   Scattered Clouds
2:54 AM 68.0 °F 62.6 °F 83% 29.94 in 10.0 mi SW 6.9 mph 18.4 mph N/A   Mostly Cloudy
3:15 AM 66.2 °F 60.8 °F 83% 29.96 in 3.0 mi SW 6.9 mph - 0.18 in Rain , Thunderstorm Heavy Thunderstorms and Rain
3:34 AM 64.4 °F 62.6 °F 94% 29.98 in 1.2 mi SW 13.8 mph 21.9 mph 0.86 in Rain , Thunderstorm Heavy Thunderstorms and Rain
3:55 AM 64.4 °F 62.6 °F 94% 30.00 in 4.0 mi South 8.1 mph - 1.30 in Rain , Thunderstorm Heavy Thunderstorms and Rain
4:14 AM 66.2 °F 62.6 °F 88% 29.99 in 10.0 mi SW 4.6 mph - 0.01 in Rain , Thunderstorm Light Thunderstorms and Rain
4:35 AM 66.2 °F 64.4 °F 94% 29.99 in 7.0 mi Calm Calm - 0.04 in Rain Heavy Rain
4:54 AM 66.2 °F 64.4 °F 94% 29.99 in 10.0 mi SSW 6.9 mph - 0.05 in Rain Light Rain
5:14 AM 66.2 °F 64.4 °F 94% 29.97 in 10.0 mi South 8.1 mph - N/A   Light Drizzle
5:35 AM 68.0 °F 64.4 °F 88% 29.97 in 10.0 mi South 6.9 mph - N/A   Overcast
5:55 AM 68.0 °F 64.4 °F 88% 29.98 in 10.0 mi South 6.9 mph - N/A   Overcast
6:14 AM 68.0 °F 64.4 °F 88% 29.98 in 10.0 mi South 9.2 mph - N/A Rain Light Rain
6:35 AM 68.0 °F 64.4 °F 88% 29.99 in 10.0 mi South 8.1 mph - N/A   Overcast
6:54 AM 68.0 °F 64.4 °F 88% 29.99 in 10.0 mi South 3.5 mph - N/A   Overcast
7:14 AM 68.0 °F 64.4 °F 88% 30.00 in 10.0 mi SSE 3.5 mph - N/A   Overcast
7:34 AM 68.0 °F 64.4 °F 88% 30.00 in 10.0 mi SSE 4.6 mph - N/A   Mostly Cloudy
7:54 AM 68.0 °F 66.2 °F 94% 30.00 in 10.0 mi SSE 3.5 mph - N/A   Mostly Cloudy
8:15 AM 69.8 °F 68.0 °F 94% 30.00 in 10.0 mi SSE 3.5 mph - N/A   Mostly Cloudy
8:35 AM 69.8 °F 68.0 °F 94% 30.00 in 10.0 mi SSE 3.5 mph - N/A   Mostly Cloudy
8:55 AM 69.8 °F 66.2 °F 88% 30.00 in 10.0 mi South 8.1 mph - N/A   Overcast
9:14 AM 71.6 °F 66.2 °F 83% 30.00 in 10.0 mi South 6.9 mph 16.1 mph N/A   Overcast
9:34 AM 73.4 °F 64.4 °F 73% 30.00 in 10.0 mi South 10.4 mph - N/A   Mostly Cloudy
9:55 AM 75.2 °F 66.2 °F 73% 29.99 in 10.0 mi SSE 8.1 mph - N/A   Mostly Cloudy
10:15 AM 73.4 °F 64.4 °F 73% 30.00 in 10.0 mi SSW 13.8 mph 17.3 mph N/A   Overcast
10:35 AM 73.4 °F 64.4 °F 73% 30.01 in 10.0 mi South 9.2 mph - N/A   Overcast
10:54 AM 73.4 °F 64.4 °F 73% 30.01 in 10.0 mi South 4.6 mph - N/A   Overcast
11:15 AM 73.4 °F 64.4 °F 73% 30.01 in 10.0 mi Calm Calm - N/A   Overcast
11:35 AM 73.4 °F 64.4 °F 73% 30.01 in 10.0 mi Calm Calm - N/A   Overcast
11:54 AM 73.4 °F 66.2 °F 78% 30.01 in 10.0 mi Calm Calm - N/A   Overcast
12:15 PM 69.8 °F 64.4 °F 83% 30.03 in 10.0 mi SSE 3.5 mph - N/A   Overcast
12:35 PM 69.8 °F 64.4 °F 83% 30.04 in 10.0 mi SE 6.9 mph - N/A   Overcast
12:54 PM 69.8 °F 64.4 °F 83% 30.04 in 10.0 mi SE 5.8 mph - N/A   Overcast
1:15 PM 69.8 °F 64.4 °F 83% 30.04 in 10.0 mi SE 4.6 mph - N/A   Overcast
1:35 PM 69.8 °F 64.4 °F 83% 30.04 in 10.0 mi Calm Calm - N/A   Overcast
1:53 PM 69.8 °F 64.4 °F 83% 30.04 in 10.0 mi SE 3.5 mph - N/A   Overcast
2:15 PM 69.8 °F 64.4 °F 83% 30.04 in 10.0 mi SE 5.8 mph - N/A   Overcast
2:34 PM 69.8 °F 64.4 °F 83% 30.04 in 10.0 mi ESE 6.9 mph - N/A   Overcast
2:55 PM 71.6 °F 66.2 °F 83% 30.03 in 10.0 mi ESE 8.1 mph - N/A   Overcast
3:14 PM 69.8 °F 64.4 °F 83% 30.03 in 10.0 mi ESE 10.4 mph 16.1 mph N/A   Overcast
3:34 PM 69.8 °F 64.4 °F 83% 30.05 in 10.0 mi ESE 6.9 mph - N/A   Overcast
3:54 PM 69.8 °F 64.4 °F 83% 30.05 in 10.0 mi SE 9.2 mph - N/A   Overcast
4:14 PM 69.8 °F 64.4 °F 83% 30.06 in 10.0 mi SSE 4.6 mph - N/A   Overcast
4:35 PM 69.8 °F 64.4 °F 83% 30.06 in 10.0 mi SE 4.6 mph - N/A   Overcast
4:54 PM 69.8 °F 64.4 °F 83% 30.06 in 5.0 mi Calm Calm - N/A   Haze
5:15 PM 69.8 °F 66.2 °F 88% 30.05 in 4.0 mi SE 3.5 mph - N/A   Overcast
5:35 PM 69.8 °F 68.0 °F 94% 30.05 in 7.0 mi SE 3.5 mph - N/A   Overcast
5:55 PM 69.8 °F 66.2 °F 88% 30.06 in 10.0 mi SSE 4.6 mph - N/A   Overcast
6:14 PM 69.8 °F 64.4 °F 83% 30.05 in 10.0 mi SSE 5.8 mph - N/A   Mostly Cloudy
6:34 PM 71.6 °F 64.4 °F 78% 30.05 in 10.0 mi South 8.1 mph - N/A   Scattered Clouds
6:55 PM 71.6 °F 64.4 °F 78% 30.05 in 10.0 mi SSE 4.6 mph - N/A   Clear
7:15 PM 71.6 °F 62.6 °F 73% 30.05 in 10.0 mi SSE 4.6 mph - N/A   Clear
7:34 PM 73.4 °F 62.6 °F 69% 30.05 in 10.0 mi SSE 5.8 mph - N/A   Clear
7:55 PM 71.6 °F 62.6 °F 73% 30.05 in 10.0 mi SSE 6.9 mph - N/A   Scattered Clouds
8:14 PM 69.8 °F 62.6 °F 78% 30.05 in 10.0 mi SSE 6.9 mph - N/A   Mostly Cloudy
8:35 PM 69.8 °F 60.8 °F 73% 30.05 in 10.0 mi SSE 8.1 mph - N/A   Scattered Clouds
8:55 PM 69.8 °F 60.8 °F 73% 30.05 in 10.0 mi SSE 6.9 mph - N/A   Scattered Clouds
9:15 PM 69.8 °F 60.8 °F 73% 30.06 in 10.0 mi SE 5.8 mph - N/A   Scattered Clouds
9:34 PM 69.8 °F 60.8 °F 73% 30.06 in 10.0 mi SE 5.8 mph - N/A   Clear
9:54 PM 69.8 °F 62.6 °F 78% 30.07 in 10.0 mi SSE 5.8 mph - N/A   Scattered Clouds
10:14 PM 69.8 °F 62.6 °F 78% 30.07 in 10.0 mi SE 3.5 mph - N/A   Mostly Cloudy
10:35 PM 69.8 °F 62.6 °F 78% 30.08 in 10.0 mi SSE 3.5 mph - N/A   Mostly Cloudy
10:54 PM 69.8 °F 62.6 °F 78% 30.09 in 10.0 mi Calm Calm - N/A   Overcast
11:15 PM 68.0 °F 60.8 °F 78% 30.09 in 10.0 mi Calm Calm - N/A   Mostly Cloudy
11:35 PM 68.0 °F 60.8 °F 78% 30.09 in 10.0 mi SE 4.6 mph - N/A   Overcast
11:55 PM 68.0 °F 60.8 °F 78% 30.09 in 10.0 mi SE 3.5 mph - N/A   Mostly Cloudy